Theta_e
333 330 322 317 309 311 316 319 323 323 323 323 323 322 319 311 310 310 309 308 308 308 307 307 306 306 306 306 306 305 305 305 305 305 305 305 304 306 316 325 326 323 326
328 324 325 323 315 310 314 321 321 320 320 320 320 319 318 314 309 309 309 309 308 308 308 307 306 306 306 305 305 305 305 305 305 305 305 305 305 304 304 306 317 325 325
326 325 327 325 321 311 316 320 318 320 318 317 318 317 317 314 311 308 308 307 307 307 307 306 306 306 306 305 305 306 306 306 306 305 305 305 304 304 304 304 303 308 322
326 325 325 324 321 311 314 316 316 320 317 316 315 314 314 314 313 312 309 308 307 307 306 306 306 306 306 305 305 306 306 306 306 306 305 305 304 303 303 303 304 304 303
325 325 323 321 314 312 313 313 313 313 313 313 312 313 312 313 312 311 310 310 309 308 307 307 306 306 305 305 305 306 306 306 306 306 305 304 303 302 301 302 302 302 303
324 324 322 318 311 312 312 312 312 312 312 312 312 311 311 311 311 311 311 310 309 308 308 307 307 306 306 306 305 306 306 306 306 306 305 304 303 301 300 299 300 301 301
322 321 319 315 311 312 312 312 312 312 312 312 312 312 312 312 311 311 311 311 310 310 309 308 308 307 307 306 306 305 305 306 306 306 305 303 302 300 299 299 298 300 304
321 320 316 313 311 311 312 312 312 312 312 311 311 312 312 311 311 311 311 311 311 310 310 309 308 308 307 307 306 306 305 305 305 305 304 303 301 299 298 297 297 298 300
318 316 313 312 311 311 311 312 312 312 312 311 311 312 313 313 312 311 312 311 311 310 310 309 309 308 308 307 307 307 306 305 305 304 302 299 298 297 297 296 297 297 297
316 313 312 312 311 311 312 312 313 313 312 312 312 312 312 312 311 312 311 311 311 310 310 309 309 309 308 308 307 307 306 305 304 303 301 298 297 296 296 296 298 299 300
316 314 312 312 311 311 312 311 312 311 312 313 311 310 309 308 308 308 308 308 310 311 310 309 309 308 308 307 307 307 306 304 304 302 301 299 296 295 295 297 299 304 304
320 315 312 312 311 312 312 312 311 313 313 310 310 308 308 308 310 311 310 311 312 311 310 310 309 308 308 306 306 306 305 303 302 302 301 299 296 295 296 301 303 304 304
328 319 317 311 311 312 313 312 312 313 313 310 309 308 309 309 311 312 312 312 311 311 311 310 310 309 307 305 305 305 304 302 301 301 300 298 296 296 297 301 302 303 303
324 324 321 314 311 309 311 311 313 312 309 310 310 309 308 309 310 311 311 311 311 309 309 309 306 306 305 303 303 302 301 301 300 300 299 298 297 297 301 301 301 302 302
321 320 318 317 314 312 310 311 310 309 311 310 309 309 308 308 309 309 309 309 309 308 307 306 305 304 303 306 302 303 302 300 298 298 298 298 298 299 300 300 300 301 302
320 320 319 318 315 314 312 313 312 311 310 310 309 308 308 309 309 308 308 308 309 309 305 305 306 305 303 300 299 299 298 298 298 298 298 297 297 298 299 299 299 299 300
320 319 318 317 316 314 312 310 310 311 309 308 308 309 309 308 308 310 309 306 302 301 301 301 299 298 298 299 299 298 298 298 297 297 297 297 298 299 299 300 299 299 299
317 316 315 313 312 311 311 310 309 309 309 309 310 310 308 307 303 301 299 298 299 299 299 299 298 298 298 298 297 297 296 297 297 297 296 297 298 297 297 297 298 298 298
314 313 312 312 311 310 309 307 305 304 304 303 302 301 301 300 299 299 299 298 299 298 298 299 298 298 298 298 298 298 298 297 296 295 296 296 296 295 295 296 297 297 298
308 307 308 307 306 305 303 303 302 301 301 300 300 299 299 299 298 298 298 298 298 298 298 298 298 298 297 297 297 297 297 297 296 296 296 296 295 295 296 296 297 298 297
304 304 305 304 303 302 301 301 300 300 299 299 298 299 298 299 299 299 300 299 298 298 297 297 296 296 296 296 296 295 295 295 295 295 295 294 294 295 295 295 295 296 296
299 298 298 297 297 296 295 295 294 294 293 293 294 296 297 298 299 298 298 297 297 297 296 296 295 295 295 295 295 295 294 294 294 293 294 293 294 295 295 295 295 295 296
296 296 295 295 294 294 294 294 294 293 293 293 293 294 294 294 294 294 294 294 293 293 293 294 293 293 293 293 293 294 293 294 293 294 294 294 294 295 296 295 296 296 296
296 296 295 294 294 294 293 293 293 292 292 291 291 292 292 293 293 293 294 294 293 293 292 292 292 292 294 295 296 296 295 296 295 296 296 295 295 295 295 295 296 296 295
295 294 294 293 293 293 293 292 291 290 291 291 292 293 293 293 292 293 293 293 293 293 293 293 292 293 294 293 293 294 294 293 294 295 295 294 294 294 295 295 295 295 295
293 293 293 293 292 292 292 291 292 292 290 290 291 290 290 290 292 293 294 294 294 294 294 294 295 295 294 293 292 292 292 292 293 294 293 293 293 294 294 295 295 295 295
Wind_Speed
11 9 12 14 18 20 18 20 25 23 18 13 9 4 9 10 13 16 17 16 16 17 17 17 17 18 18 19 20 20 20 20 19 18 18 17 16 13 12 11 11 11 11
11 11 15 14 17 18 17 26 18 20 19 14 11 7 7 8 10 13 14 15 15 15 14 15 15 16 17 18 19 19 19 19 18 17 16 15 14 14 12 10 7 7 7
15 12 14 12 12 16 21 23 19 21 20 16 12 7 3 8 9 10 12 12 11 11 11 13 13 13 14 15 17 18 19 20 20 20 20 18 16 13 11 10 10 8 5
19 19 19 16 14 17 22 20 20 22 19 17 13 8 6 5 8 8 9 8 8 7 8 9 9 10 11 13 15 16 17 19 20 20 20 20 19 18 15 12 10 8 7
22 21 20 17 19 22 21 20 20 17 19 17 15 12 8 6 3 2 4 5 5 4 4 4 5 6 7 9 11 13 15 16 18 19 20 20 20 19 18 17 12 10 8
22 21 20 18 23 24 24 21 19 18 16 15 12 14 12 8 4 2 1 2 2 2 1 1 0 2 3 5 7 10 11 14 16 18 19 20 20 20 18 17 17 15 10
23 21 21 19 24 25 24 22 20 19 19 15 14 14 11 8 8 7 7 6 5 4 5 5 4 4 2 3 5 8 10 12 15 18 20 21 22 21 20 18 15 12 14
23 23 23 21 24 25 23 21 20 21 18 16 17 13 10 9 10 10 10 10 10 9 8 7 7 7 6 7 7 9 10 12 14 17 19 21 21 21 21 19 17 15 10
22 22 23 23 24 23 23 21 20 20 21 19 16 10 6 4 6 12 14 12 12 12 11 10 10 10 11 12 11 13 14 15 15 17 19 20 21 21 21 20 17 15 14
24 24 25 24 24 24 25 23 20 19 20 19 16 8 6 4 5 3 11 10 10 12 13 12 12 13 15 16 16 17 19 18 17 17 19 21 22 22 21 20 18 15 13
24 24 26 25 24 25 26 27 25 20 22 21 18 13 10 8 6 8 12 12 11 11 12 14 13 16 17 17 17 21 22 20 19 20 22 24 24 22 19 17 16 15 14
27 29 31 28 28 29 29 32 25 30 27 20 20 15 13 12 10 8 8 8 9 11 15 15 16 16 16 16 18 19 19 21 24 26 28 28 25 22 20 17 14 14 14
28 32 31 34 33 30 30 24 30 34 30 16 12 14 12 14 13 11 12 12 9 8 7 12 11 11 11 14 17 19 21 24 29 31 31 28 26 25 21 18 17 16 16
15 18 24 33 37 36 34 28 32 28 30 30 21 19 19 15 15 15 15 15 16 14 8 8 9 9 9 11 14 18 24 30 31 31 30 29 31 28 22 23 21 19 18
9 8 7 12 24 32 33 32 31 32 29 21 22 18 15 13 14 15 14 14 12 10 11 15 16 15 16 29 24 30 26 30 22 21 23 24 25 24 24 23 21 20 20
7 6 6 7 11 16 22 20 17 14 18 21 16 12 12 12 11 11 11 13 25 23 19 23 26 29 21 18 16 16 16 16 19 23 29 33 27 22 22 23 23 22 20
6 8 8 9 8 9 9 10 12 14 13 12 10 8 10 11 14 20 20 15 11 14 22 24 21 18 18 21 24 25 26 27 27 25 25 22 17 19 21 23 23 24 24
9 8 9 9 10 9 11 12 12 11 10 11 15 13 12 11 8 8 9 12 16 13 15 18 19 20 21 21 24 26 27 28 28 30 29 18 19 22 26 24 25 24 21
19 16 14 12 12 11 10 8 8 7 5 4 3 4 6 8 10 11 11 12 13 14 14 18 21 22 22 22 23 24 25 28 33 28 21 24 28 29 26 24 24 24 20
15 15 14 11 9 10 9 9 10 10 10 9 9 9 9 9 8 10 12 14 17 19 21 23 26 27 26 25 27 30 33 33 31 23 24 26 25 25 23 21 18 19 13
11 11 10 9 9 7 6 6 6 7 7 8 10 11 12 12 12 11 10 13 15 17 21 24 26 25 24 25 26 26 27 26 27 25 26 28 28 20 18 18 17 15 15
7 6 6 5 5 5 5 5 5 6 8 9 12 13 13 14 16 19 22 22 15 14 17 19 21 23 25 26 24 24 24 27 32 33 31 32 23 22 21 21 19 17 16
4 4 4 2 2 3 2 3 3 4 5 6 10 13 13 14 15 16 18 20 19 18 21 22 25 26 27 28 28 30 32 32 29 29 26 27 24 23 21 20 20 19 20
3 2 1 1 1 3 5 5 4 2 4 6 9 10 12 12 12 14 14 17 16 17 19 19 21 21 21 23 23 23 24 25 25 25 22 25 24 26 24 18 20 19 15
1 0 1 2 3 3 6 10 8 3 2 5 7 8 12 14 14 8 11 14 15 15 15 16 17 17 19 22 24 26 27 27 26 25 22 22 24 20 23 20 18 16 13
2 1 1 1 2 1 4 8 11 8 3 3 5 6 6 6 6 8 11 15 17 20 21 19 16 16 19 21 22 20 19 22 22 23 14 18 22 19 23 18 13 14 15
Wind_Direction
185 196 170 151 150 148 148 132 124 123 137 151 140 119 99 110 115 110 106 102 98 92 88 85 80 76 71 66 66 62 61 59 57 55 54 53 54 56 64 68 64 67 72
195 173 159 152 149 160 143 138 136 135 143 149 139 133 110 100 120 112 111 109 100 94 90 82 75 71 67 63 58 57 54 54 53 50 48 43 39 40 38 42 50 63 71
182 178 162 169 162 165 151 151 150 153 150 144 149 149 142 116 117 122 118 107 101 98 87 78 70 69 65 60 58 51 46 41 38 35 31 30 26 22 17 15 19 17 19
183 179 185 193 185 164 160 164 170 170 165 169 155 174 165 142 125 129 131 125 115 101 91 89 83 69 63 58 52 46 40 35 31 27 22 18 14 10 9 2 353 349 344
191 202 202 197 185 165 165 174 170 174 167 165 162 158 161 162 146 154 152 146 135 128 113 80 73 65 57 50 45 37 32 28 23 20 15 10 6 1 354 349 346 335 322
193 204 202 195 177 175 177 181 179 166 164 165 168 158 165 173 203 209 185 266 237 218 208 185 56 43 48 42 31 24 19 15 12 9 6 2 358 352 346 341 336 329 318
195 200 199 198 184 187 188 188 177 170 167 168 166 163 176 195 224 229 227 238 253 264 270 265 268 287 313 338 352 359 357 357 358 358 355 353 349 343 337 331 324 320 325
202 202 203 200 194 194 195 185 179 173 173 175 176 173 181 201 207 210 241 265 272 268 280 282 279 276 287 300 312 326 333 338 341 344 344 342 339 333 328 323 317 312 300
202 199 202 205 199 202 191 182 181 183 178 179 194 189 173 167 199 220 223 247 262 259 273 281 279 281 286 294 301 309 317 321 326 330 333 331 328 324 320 315 311 302 295
202 198 202 208 209 195 187 184 188 198 198 191 190 184 160 155 117 161 226 249 256 254 257 266 266 278 286 291 299 306 308 307 311 318 322 322 318 315 309 307 305 300 295
207 209 208 205 207 196 193 194 188 212 211 204 199 200 202 230 266 281 275 280 253 250 259 254 256 265 266 280 302 308 302 305 310 314 315 314 310 305 301 297 295 297 295
213 211 207 200 202 197 202 198 216 203 191 190 201 232 244 248 268 278 279 284 272 253 248 256 256 264 277 313 305 298 300 306 310 309 310 312 312 305 297 294 292 290 288
225 213 213 202 202 199 201 202 202 205 198 194 216 236 264 264 263 259 265 276 279 267 274 248 262 277 276 303 298 294 292 300 301 301 302 306 309 303 295 293 288 284 283
239 242 229 221 218 205 216 218 216 214 229 239 247 241 259 262 262 265 272 278 280 277 250 232 241 253 273 293 284 288 296 294 291 290 294 300 303 295 295 292 288 283 278
124 155 189 227 228 221 223 222 227 240 258 242 241 256 267 265 267 275 283 285 284 282 272 264 261 263 265 292 269 278 286 282 286 292 296 304 299 294 292 288 283 277 272
122 139 169 180 208 222 232 232 227 219 224 233 242 252 256 262 273 284 290 288 297 285 271 275 284 291 285 282 284 261 266 279 285 286 288 300 299 291 286 286 285 284 274
164 161 151 156 162 177 179 194 205 213 219 225 231 245 263 271 287 295 290 281 269 274 289 292 291 291 290 282 279 281 286 291 296 297 303 300 291 291 289 285 283 282 277
133 132 130 140 148 165 187 198 197 192 208 236 253 252 255 267 268 265 265 267 279 291 299 302 299 295 295 291 289 289 292 296 299 297 305 288 288 294 298 285 284 283 289
117 121 128 136 143 147 150 149 137 134 143 164 220 247 246 262 269 271 278 283 279 278 274 279 284 286 286 287 290 290 291 295 299 306 297 291 292 297 291 292 281 277 285
110 120 128 133 139 147 156 162 168 177 186 201 222 239 257 273 281 287 294 291 282 280 282 284 287 289 289 286 286 290 293 293 295 290 285 291 296 297 287 294 283 286 279
129 138 139 150 160 175 187 201 208 224 233 237 240 248 253 254 260 264 268 278 287 291 293 292 295 297 297 298 297 299 299 301 293 290 294 294 306 291 283 290 286 278 277
145 155 156 178 203 213 231 244 246 247 248 253 255 254 258 263 267 273 275 278 280 289 288 295 298 297 295 297 299 299 300 298 298 300 298 299 294 280 280 278 269 276 279
138 130 119 165 224 264 272 284 273 268 257 253 261 268 273 276 281 282 279 278 282 286 284 289 289 291 294 292 294 295 296 293 291 295 292 292 288 284 289 278 280 272 275
158 138 111 64 2 335 329 338 2 311 284 258 259 270 273 279 284 281 290 296 303 303 304 295 290 292 301 301 299 304 306 302 299 290 287 289 295 293 290 281 276 265 265
184 248 351 35 16 355 322 334 9 356 265 256 260 256 271 287 297 317 301 313 320 320 317 308 297 291 283 288 297 301 299 303 295 289 293 294 301 304 307 287 259 235 238
172 143 69 350 320 346 308 331 351 9 10 351 345 334 331 340 355 338 329 317 316 316 323 318 313 305 304 297 297 297 298 288 292 291 295 297 300 290 306 297 262 233 244